TimeCDT,TemperatureF,Dew PointF,Humidity,Sea Level PressureIn,VisibilityMPH,Wind Direction,Wind SpeedMPH,Gust SpeedMPH,PrecipitationIn,Events,Conditions,WindDirDegrees,DateUTC
2:52 AM,46.9,35.1,63,29.73,-9999.0,South,15.0,-,N/A,,Unknown,170,2012-10-13 07:52:00
3:52 AM,48.9,35.1,59,29.70,-9999.0,South,9.2,-,N/A,,Unknown,170,2012-10-13 08:52:00
4:52 AM,48.9,36.0,61,29.68,-9999.0,SSE,9.2,-,N/A,,Unknown,160,2012-10-13 09:52:00
5:52 AM,45.0,35.1,68,29.69,-9999.0,South,6.9,-,N/A,,Unknown,190,2012-10-13 10:52:00
6:52 AM,43.0,35.1,74,29.70,-9999.0,South,4.6,-,N/A,,Unknown,180,2012-10-13 11:52:00
7:52 AM,39.9,34.0,79,29.68,-9999.0,South,5.8,-,N/A,,Unknown,180,2012-10-13 12:52:00
8:52 AM,46.9,37.9,71,29.68,-9999.0,Calm,Calm,-,N/A,,Unknown,0,2012-10-13 13:52:00
9:52 AM,54.0,37.9,55,29.68,-9999.0,North,3.5,-,N/A,,Unknown,10,2012-10-13 14:52:00
10:52 AM,55.9,37.9,51,29.68,-9999.0,NW,4.6,-,N/A,,Unknown,320,2012-10-13 15:52:00
11:52 AM,55.9,37.9,51,29.70,-9999.0,NNW,6.9,-,N/A,,Unknown,330,2012-10-13 16:52:00
12:52 PM,59.0,37.9,46,29.69,-9999.0,NNW,11.5,-,N/A,,Unknown,330,2012-10-13 17:52:00
1:52 PM,62.1,37.9,41,29.68,-9999.0,NW,5.8,-,N/A,,Unknown,310,2012-10-13 18:52:00
2:52 PM,66.0,37.9,36,29.66,-9999.0,NNW,6.9,-,N/A,,Unknown,340,2012-10-13 19:52:00
3:52 PM,66.9,37.9,34,29.67,-9999.0,North,6.9,-,N/A,,Unknown,350,2012-10-13 20:52:00
4:52 PM,70.0,37.9,31,29.67,-9999.0,NNW,6.9,-,N/A,,Unknown,340,2012-10-13 21:52:00
5:52 PM,69.1,37.9,32,29.68,-9999.0,North,6.9,-,N/A,,Unknown,360,2012-10-13 22:52:00
7:52 PM,66.0,33.1,29,29.75,-9999.0,North,9.2,-,N/A,,Unknown,360,2012-10-14 00:52:00
8:52 PM,64.0,32.0,30,29.78,-9999.0,North,11.5,-,N/A,,Unknown,10,2012-10-14 01:52:00
9:52 PM,61.0,32.0,34,29.79,-9999.0,NNE,10.4,-,N/A,,Unknown,20,2012-10-14 02:52:00
10:52 PM,59.0,33.1,38,29.83,-9999.0,North,13.8,-,N/A,,Unknown,10,2012-10-14 03:52:00